{"data":{"norad_id":64325,"intl_designator":"2025-124J","name":"STARLINK-11698 [DTC]","alt_names":[],"object_type":"PAYLOAD","status":"ACTIVE","operator":null,"country":"US","launch_date":"2025-06-10","launch_site_code":"AFETR","launch_vehicle":null,"mission":null,"orbit_class":"UNKNOWN","rcs_meters":null,"size_class":null,"mass_kg":null,"dimensions":null,"purposes":["comms"],"wikipedia_slug":null,"has_3d_model":false,"image_url":null,"decayed_at":null,"tle_current":{"epoch":"2026-05-24T18:48:56.010240Z","epoch_age_seconds":90547,"freshness":"FRESH","line1":"1 64325U 25124J   26144.78398160  .00224006  00000+0  16907-2 0  9991","line2":"2 64325  43.0017 290.3971 0002021 266.4574  93.6063 15.71007383 54806","mean_motion":15.71007383,"eccentricity":0.0002021,"inclination_deg":43.0017,"raan_deg":290.3971,"arg_perigee_deg":266.4574,"mean_anomaly_deg":93.6063,"bstar":0.0016907,"rev_number":5480,"period_min":91.660931424152,"perigee_km":354.65571964464,"apogee_km":357.37766456699,"semimajor_km":6734.1536921058,"source":"CELESTRAK","updated_at":"2026-05-25T13:38:20.395255Z"}}}